FW9568 Weather Reports


Display with metric or nautical units.
time (UTC)temp
F
wind
direction
speed
MPH
gust
MPH
rain 1hr
in
rain 24hr
in
rain mn
in
humidity
%
barometer
mb
20260509220217 74 72 3.0 9.0 0.00 0.00 0.00 24 1013.5
20260509215403 74 72 4.0 12.0 0.00 0.00 0.00 24 1013.5
20260509214503 74 79 4.0 8.0 0.00 0.00 0.00 24 1013.2
20260509213603 73 81 2.0 8.0 0.00 0.00 0.00 24 1013.5
20260509212703 73 76 2.0 8.0 0.00 0.00 0.00 22 1013.6
20260509212018 73 81 1.0 4.0 0.00 0.00 0.00 21 1013.6
20260509210903 73 84 1.0 3.0 0.00 0.00 0.00 21 1013.8
20260509210217 74 98 2.0 7.0 0.00 0.00 0.00 21 1013.8
20260509205616 74 91 2.0 8.0 0.00 0.00 0.00 20 1013.6
20260509204503 76 65 2.0 9.0 0.00 0.00 0.00 20 1013.5
20260509203819 76 81 2.0 6.0 0.00 0.00 0.00 19 1013.5
20260509202703 76 97 1.0 2.0 0.00 0.00 0.00 21 1013.7
20260509201803 76 80 1.0 3.0 0.00 0.00 0.00 19 1014.0
20260509200903 76 139 0.0 3.0 0.00 0.00 0.00 19 1014.1
20260509200003 76 99 1.0 3.0 0.00 0.00 0.00 19 1014.0
20260509195403 76 116 1.0 3.0 0.00 0.00 0.00 20 1013.9
20260509194503 76 246 2.0 6.0 0.00 0.00 0.00 21 1014.0
20260509193603 77 270 2.0 8.0 0.00 0.00 0.00 18 1014.1
20260509192703 77 261 1.0 4.0 0.00 0.00 0.00 23 1014.0
20260509191803 77 231 1.0 4.0 0.00 0.00 0.00 21 1014.3
20260509191116 76 244 2.0 6.0 0.00 0.00 0.00 20 1014.4
20260509190216 76 268 2.0 4.0 0.00 0.00 0.00 20 1014.3
20260509185403 76 258 3.0 9.0 0.00 0.00 0.00 23 1014.5
20260509184503 76 272 2.0 7.0 0.00 0.00 0.00 22 1014.3
20260509183603 76 282 4.0 10.0 0.00 0.00 0.00 24 1014.4
20260509182703 76 277 3.0 11.0 0.00 0.00 0.00 19 1014.5
20260509181803 77 290 2.0 9.0 0.00 0.00 0.00 20 1014.7
20260509181116 77 164 1.0 4.0 0.00 0.00 0.00 23 1014.8
20260509180003 77 60 1.0 2.0 0.00 0.00 0.00 19 1014.8
20260509175403 76 326 1.0 3.0 0.00 0.00 0.00 21 1014.9
20260509174503 76 170 1.0 4.0 0.00 0.00 0.00 22 1015.0
20260509173818 74 242 1.0 4.0 0.00 0.00 0.00 27 1015.2
20260509172703 74 90 2.0 6.0 0.00 0.00 0.00 22 1015.2
20260509171803 73 301 2.0 6.0 0.00 0.00 0.00 21 1015.3
20260509170903 73 341 1.0 4.0 0.00 0.00 0.00 24 1015.5
20260509170003 71 268 2.0 5.0 0.00 0.00 0.00 22 1015.4
20260509165619 71 275 2.0 5.0 0.00 0.00 0.00 24 1015.6
20260509164503 71 284 2.0 6.0 0.00 0.00 0.00 25 1015.6
20260509163817 71 307 1.0 5.0 0.00 0.00 0.00 23 1015.6
20260509162703 70 356 1.0 5.0 0.00 0.00 0.00 24 1015.6
20260509161803 68 283 2.0 8.0 0.00 0.00 0.00 28 1015.5
20260509160903 67 274 2.0 6.0 0.00 0.00 0.00 28 1015.6
20260509160003 67 303 1.0 6.0 0.00 0.00 0.00 29 1015.7
20260509155403 67 317 2.0 6.0 0.00 0.00 0.00 29 1015.6
20260509154503 66 292 2.0 6.0 0.00 0.00 0.00 30 1015.6
20260509153603 65 288 2.0 7.0 0.00 0.00 0.00 36 1015.8
20260509152703 64 272 1.0 5.0 0.00 0.00 0.00 37 1016.0
20260509151803 63 274 1.0 3.0 0.00 0.00 0.00 41 1015.9
20260509150903 62 296 2.0 4.0 0.00 0.00 0.00 41 1015.8
20260509150003 60 300 2.0 5.0 0.00 0.00 0.00 43 1015.7
20260509145403 58 294 1.0 5.0 0.00 0.00 0.00 50 1015.8
20260509144503 57 299 1.0 3.0 0.00 0.00 0.00 54 1015.9
20260509143816 56 298 1.0 2.0 0.00 0.00 0.00 56 1015.9
20260509142703 56 298 1.0 2.0 0.00 0.00 0.00 56 1016.0
20260509142019 56 299 1.0 3.0 0.00 0.00 0.00 54 1015.9
20260509141119 56 293 2.0 4.0 0.00 0.00 0.00 54 1015.9
20260509140222 56 291 2.0 5.0 0.00 0.00 0.00 54 1015.6
20260509135403 55 294 2.0 5.0 0.00 0.00 0.00 56 1015.5
20260509134503 55 297 1.0 4.0 0.00 0.00 0.00 58 1015.6
20260509133603 54 310 0.0 2.0 0.00 0.00 0.00 59 1015.4
20260509132703 53 314 1.0 2.0 0.00 0.00 0.00 64 1015.4
20260509131803 52 9 1.0 4.0 0.00 0.00 0.00 63 1015.4
20260509130903 50 46 1.0 3.0 0.00 0.00 0.00 66 1015.4
20260509130003 49 19 1.0 2.0 0.00 0.00 0.00 68 1015.2
20260509125403 48 326 1.0 2.0 0.00 0.00 0.00 70 1015.2
20260509124503 46 313 1.0 3.0 0.00 0.00 0.00 71 1015.4
20260509123603 46 292 1.0 3.0 0.00 0.00 0.00 71 1015.2
20260509122703 46 306 2.0 4.0 0.00 0.00 0.00 71 1015.4
20260509121803 46 295 3.0 6.0 0.00 0.00 0.00 71 1015.2
20260509120903 46 289 2.0 4.0 0.00 0.00 0.00 71 1015.0
20260509120003 46 299 1.0 4.0 0.00 0.00 0.00 71 1015.0
20260509115403 46 291 2.0 4.0 0.00 0.00 0.00 70 1014.9
20260509114503 46 300 2.0 4.0 0.00 0.00 0.00 70 1015.0
20260509113815 46 295 1.0 6.0 0.00 0.00 0.00 70 1014.8
20260509112703 46 295 1.0 4.0 0.00 0.00 0.00 70 1015.0
20260509112018 46 299 1.0 3.0 0.00 0.00 0.00 70 1015.1
20260509110903 46 308 1.0 3.0 0.00 0.00 0.00 69 1015.1
20260509110217 46 307 1.0 3.0 0.00 0.00 0.00 69 1015.1
20260509105403 46 354 0.0 2.0 0.00 0.00 0.00 68 1015.2
20260509104503 47 0 0.0 1.0 0.00 0.00 0.00 67 1015.0
20260509103603 47 5 0.0 1.0 0.00 0.00 0.00 67 1015.2
20260509102703 48 0 0.0 0.0 0.00 0.00 0.00 64 1015.3
20260509101803 48 0 0.0 0.0 0.00 0.00 0.00 63 1015.4
20260509100903 49 0 0.0 0.0 0.00 0.00 0.00 62 1015.3
20260509100003 50 0 0.0 0.0 0.00 0.00 0.00 61 1015.4
20260509095616 50 0 0.0 0.0 0.00 0.00 0.00 60 1015.4
20260509094503 51 0 0.0 0.0 0.00 0.00 0.00 59 1015.4
20260509093603 51 79 0.0 2.0 0.00 0.00 0.00 58 1015.3
20260509092703 52 99 2.0 4.0 0.00 0.00 0.00 57 1015.2
20260509091803 52 96 2.0 3.0 0.00 0.00 0.00 57 1015.3
20260509091117 51 97 2.0 3.0 0.00 0.00 0.00 58 1015.4
20260509090003 51 97 2.0 4.0 0.00 0.00 0.00 58 1015.4
20260509085403 52 92 2.0 4.0 0.00 0.00 0.00 58 1015.5
20260509084503 52 84 1.0 3.0 0.00 0.00 0.00 57 1015.6
20260509083603 53 104 2.0 6.0 0.00 0.00 0.00 54 1015.6
20260509082703 54 171 1.0 4.0 0.00 0.00 0.00 54 1015.6
20260509081803 54 120 1.0 4.0 0.00 0.00 0.00 54 1015.6
20260509080903 54 107 2.0 7.0 0.00 0.00 0.00 54 1015.6
20260509080003 53 124 2.0 7.0 0.00 0.00 0.00 54 1015.7
20260509075619 53 116 2.0 5.0 0.00 0.00 0.00 54 1015.9
20260509074503 53 107 1.0 4.0 0.00 0.00 0.00 55 1016.1
20260509073603 53 115 2.0 3.0 0.00 0.00 0.00 55 1016.2
20260509072703 54 105 2.0 4.0 0.00 0.00 0.00 55 1016.3
20260509071803 54 107 2.0 3.0 0.00 0.00 0.00 55 1016.4
20260509070903 54 111 1.0 4.0 0.00 0.00 0.00 56 1016.5
20260509070003 53 102 2.0 3.0 0.00 0.00 0.00 56 1016.6
20260509065403 53 111 1.0 3.0 0.00 0.00 0.00 56 1016.7
20260509064503 53 125 1.0 2.0 0.00 0.00 0.00 57 1016.9
20260509063603 53 128 0.0 2.0 0.00 0.00 0.00 57 1016.7
20260509062703 53 129 1.0 2.0 0.00 0.00 0.00 57 1016.9
20260509061803 54 104 0.0 2.0 0.00 0.00 0.00 57 1017.0
20260509060903 54 105 0.0 2.0 0.00 0.00 0.00 57 1017.2
20260509060004 54 107 0.0 2.0 0.00 0.00 0.00 57 1017.2
20260509055403 54 107 1.0 3.0 0.00 0.00 0.00 57 1017.3
20260509054503 54 94 0.0 2.0 0.00 0.00 0.00 57 1017.4
20260509053817 54 0 0.0 0.0 0.00 0.00 0.00 57 1017.3
20260509052703 55 99 0.0 2.0 0.00 0.00 0.00 57 1017.4
20260509051803 55 112 0.0 2.0 0.00 0.00 0.00 56 1017.3
20260509050903 55 119 0.0 2.0 0.00 0.00 0.00 56 1017.5
20260509050003 56 110 0.0 3.0 0.00 0.00 0.00 54 1017.5
20260509045403 56 107 1.0 3.0 0.00 0.00 0.00 54 1017.4
20260509044503 56 105 0.0 2.0 0.00 0.00 0.00 54 1017.5
20260509043603 56 0 0.0 0.0 0.00 0.00 0.00 54 1017.6
20260509042703 56 105 0.0 1.0 0.00 0.00 0.00 53 1017.6
20260509041803 57 105 1.0 2.0 0.00 0.00 0.00 54 1017.4
20260509040903 57 125 0.0 2.0 0.00 0.00 0.00 54 1017.3
20260509040003 57 154 0.0 2.0 0.00 0.00 0.00 54 1017.3
20260509035403 57 165 0.0 2.0 0.00 0.00 0.00 54 1017.3
20260509034503 57 0 0.0 0.0 0.00 0.00 0.00 53 1017.4
20260509033603 57 164 0.0 2.0 0.00 0.00 0.00 52 1017.1
20260509032703 57 76 0.0 2.0 0.00 0.00 0.00 52 1016.9
20260509031803 58 67 0.0 1.0 0.00 0.00 0.00 52 1016.9
20260509030903 58 71 0.0 3.0 0.00 0.00 0.00 52 1016.6
20260509030218 59 80 1.0 3.0 0.00 0.00 0.00 50 1016.4
20260509025403 59 86 1.0 3.0 0.00 0.00 0.00 50 1016.3
20260509024503 60 75 1.0 4.0 0.00 0.00 0.00 49 1016.4
20260509023603 60 83 1.0 4.0 0.00 0.00 0.00 49 1015.9
20260509022919 60 94 1.0 4.0 0.00 0.00 0.00 48 1016.2
20260509021803 61 98 0.0 2.0 0.00 0.00 0.00 48 1016.0
20260509020903 62 93 1.0 2.0 0.00 0.00 0.00 48 1016.1
20260509020003 62 89 1.0 3.0 0.00 0.00 0.00 46 1015.9
20260509015403 63 78 1.0 3.0 0.00 0.00 0.00 45 1015.9
20260509014503 64 79 1.0 4.0 0.00 0.00 0.00 44 1015.6
20260509013603 64 75 1.0 4.0 0.00 0.00 0.00 43 1015.4
20260509012919 65 74 2.0 4.0 0.00 0.00 0.00 42 1015.2
20260509011803 66 88 2.0 4.0 0.00 0.00 0.00 40 1015.1
20260509010903 66 85 3.0 6.0 0.00 0.00 0.00 39 1015.0
20260509010003 67 85 3.0 7.0 0.00 0.00 0.00 38 1015.2
20260509005403 68 86 3.0 8.0 0.00 0.00 0.00 37 1015.2
20260509004503 68 82 3.0 8.0 0.00 0.00 0.00 37 1015.4
20260509003819 67 84 2.0 7.0 0.00 0.00 0.00 37 1015.0
20260509002703 67 85 2.0 5.0 0.00 0.00 0.00 37 1014.8
20260509001803 67 85 2.0 6.0 0.00 0.00 0.00 36 1015.1
20260509000903 68 79 2.0 6.0 0.00 0.00 0.00 36 1015.0
20260509000003 68 88 3.0 6.0 0.00 0.00 0.00 35 1014.8
20260508235403 69 84 2.0 6.0 0.00 0.00 0.00 34 1014.7
20260508234503 70 95 2.0 3.0 0.00 0.00 0.00 32 1014.7
20260508233603 70 98 2.0 6.0 0.00 0.00 0.00 32 1014.8
20260508232703 71 98 2.0 6.0 0.00 0.00 0.00 31 1014.8
20260508231803 72 79 3.0 7.0 0.00 0.00 0.00 30 1014.6
20260508230903 73 85 3.0 7.0 0.00 0.00 0.00 31 1014.4
20260508230003 73 73 3.0 7.0 0.00 0.00 0.00 31 1014.6
20260508225403 73 87 2.0 7.0 0.00 0.00 0.00 31 1014.6
20260508224503 73 109 2.0 7.0 0.00 0.00 0.00 32 1014.8
20260508223819 72 104 1.0 7.0 0.00 0.00 0.00 32 1014.8
20260508222703 72 154 2.0 5.0 0.00 0.00 0.00 31 1014.7
20260508221803 71 212 1.0 4.0 0.00 0.00 0.00 33 1014.8
20260508220903 72 80 2.0 4.0 0.00 0.00 0.00 32 1014.9